Regional Weather Roundup
Issued by NWS

Home | Current Version | Previous Version | Graphics & Text | Print | Product List | Glossary On
Versions: 1 2 3 4 5 6 7 8 9 10 11 12 13 14 15 16 17 18 19 20 21 22 23 24 25 26 27 28 29 30 31 32 33 34 35 36 37 38 39 40 41 42 43 44 45 46 47 48 49 50
000
ASUS43 KLMK 290310
RWRKY
KENTUCKY REGIONAL WEATHER ROUNDUP
NATIONAL WEATHER SERVICE LOUISVILLE KY
1000 PM EST FRI NOV 28 2014

NOTE "FAIR" INDICATES FEW OR NO CLOUDS BELOW 12,000 FEET
WITH NO SIGNIFICANT WEATHER AND/OR OBSTRUCTIONS TO VISIBILITY.

KYZ001>023-026-027-061>063-070>075-290400-
WESTERN AND SOUTH CENTRAL KENTUCKY

CITY           SKY/WX    TMP DP  RH WIND       PRES   REMARKS
PADUCAH        CLEAR     43  27  53 S7        30.04F
HENDERSON      PTCLDY    36  25  64 S3        30.05F
OWENSBORO      PTCLDY    37  27  68 S9        30.06F WCI  30
HOPKINSVILLE   PTCLDY    44  24  46 S9        30.09F
BOWLING GREEN  MOCLDY    43  21  41 S16G24    30.10F
GLASGOW        PTCLDY    40  20  45 S8        30.10F WCI  34
$$

KYZ024-025-028>034-038-045-046-053-290400-
NORTH CENTRAL KENTUCKY

CITY           SKY/WX    TMP DP  RH WIND       PRES   REMARKS
LOUISVILLE/SDF MOCLDY    36  20  52 E3        30.10F
LOUISVILLE/LOU MOCLDY    36  20  52 CALM      30.11S
FORT KNOX      CLOUDY    37  22  54 S8        30.07S WCI  30
$$

KYZ035>037-039>044-047>052-055>060-089>105-290400-
NORTHEAST KENTUCKY

CITY           SKY/WX    TMP DP  RH WIND       PRES   REMARKS
LEXINGTON      PTCLDY    32  19  58 S12       30.10F WCI  23
COVINGTON      MOCLDY    33  17  51 SE6       30.10F WCI  28
FRANKFORT      PTCLDY    32  18  56 S6        30.09F WCI  26
$$

KYZ054-064>069-076>088-106>120-290400-
SOUTHEAST KENTUCKY

CITY           SKY/WX    TMP DP  RH WIND       PRES   REMARKS
JACKSON        PTCLDY    32  16  51 S5        30.15F WCI  27
LONDON         PTCLDY    34  17  50 S5        30.14F WCI  30
SOMERSET       PTCLDY    34  19  55 S5        30.17F WCI  30
MIDDLESBORO    NOT AVBL
MONTICELLO     PTCLDY    39  21  48 S7        30.18F WCI  34
$$



USA.gov is the U.S. government's official web portal to all federal, state and local government web resources and services.